     2              OBSERVATION DATA    GPS                 RINEX VERSION / TYPE
teqc 1997Jul24 19970814                                     PGM / RUN BY / DATE
                                                            COMMENT
Original Marker Name: SNAP                                  COMMENT
Campaign Name: HPGN 1991                                    COMMENT
4-Character Station Name: SNAP                              COMMENT
6-Character Antenna Code: TRMSST                            COMMENT
Vertical Measurement Point: TGP                             COMMENT
Vertical Offset to Rinex Ref. Point: 0.0629                 COMMENT
Radial Measurement Point: OGP                               COMMENT
Radial Offset to Rinex Ref. Point: 0.2413                   COMMENT
Antenna Height from Field Measurement: 1.5183 m             COMMENT
Original XYZ: 0.0000 0.0000 0.0000                          COMMENT
New XYZ position is based on association with SCEC monument COMMENT
E1E9H7D4+0011. Position of that monument is believed to be  COMMENT
valid to within 1 m horizontally; vertical accuracy         COMMENT
should be no worse than 3-times this value.                 COMMENT
                                                            COMMENT
Revised Rinex header created by UCSD GPS archive for        COMMENT
GSAC on 02-Jun-1999 (1999:153) 22:22:15 GMT                 COMMENT
For assistance contact dagnew@ucsd.edu or hjohnson@ucsd.edu COMMENT
                                                            COMMENT
SANTA PAULA NCMN 1981                                       MARKER NAME
unknown NATIONAL GEODETIC SURVEY                            OBSERVER / AGENCY
485 TRIMBLE 4000 SST NP 4.30 / SP 4.20                      REC # / TYPE / VERS
16 TR 4000SST L1/L2 GEO                                     ANT # / TYPE
 -2554477.0000 -4608627.0000  3582138.0000                  APPROX POSITION XYZ
        1.4361        0.0000        0.0000                  ANTENNA: DELTA H/E/N
     1     1     0                                          WAVELENGTH FACT L1/2
     3    C1    L1    L2                                    # / TYPES OF OBSERV
     0                                                      INTERVAL
  1991     4    30     0    46    0.000000                  TIME OF FIRST OBS
  1991     4    30     0    51   60.000000                  TIME OF LAST OBS
     0                                                      # OF SATELLITES
                                                            END OF HEADER
 91  4 30  0 46  0.0000000  0  4G13G 2G 6G12
  20239149.750          -0.58017
  22387549.750          -0.66516
  21482469.0554         -0.14456
  23010223.148          -0.71716
 91  4 30  0 46 15.0000000  0  4G13G 2G 6G12
  20238601.898       -2880.206 7
  22390739.500       16755.288 6
  21487108.680       24379.219 6
  22999270.7734     -57562.92446
 91  4 30  0 46 30.0000000  0  4G13G 2G 6G12
  20238077.1644      -5643.46847        -0.32172
  22393935.0554      33558.92446        -0.23771
  21491770.289       48875.269 6        -0.44432
  22988323.1334    -115086.29146        -0.43971
 91  4 30  0 46 45.0000000  0  4G13G 2G 6G12
  20237573.0314      -8291.11347     -2063.41962
  22397143.961       50409.955 6     13130.41921
  21496453.9534      73487.48546     19177.87462
  22977385.859     -172570.652 6    -44793.42421
 91  4 30  0 47  0.0000000  0  4G13G 2G 6G12
  20237092.0864     -10816.64147     -4031.35762
  22400363.1174      67315.06346     26303.20461
  21501162.398       98222.472 6     38451.86422
  22966455.6804    -230009.04846    -89550.57061
 91  4 30  0 47 15.0000000  0  4G13G 2G 6G12
  20236635.3364     -13215.27547     -5900.42262
  22403587.4064      84279.38046     39522.12361
  21505891.109      123085.076 6     57825.29922
  22955534.1024    -287396.02246   -134267.66261
 91  4 30  0 47 30.0000000  0  4G13G 2G 6G12
  20236202.4224     -15495.65547     -7677.34362
  22406826.773      101294.384 6     52780.55221
  21510644.227      148066.761 6     77291.51722
  22944621.8444    -344739.82846   -178951.12261
 91  4 30  0 47 45.0000000  0  4G13G 2G 6G12
  20235790.5164     -17657.70447     -9362.05462
  22410072.9064     118360.54646     66078.83461
  21515422.6414     173167.59646     96850.57862
  22933717.8134    -402039.59646   -223600.26261
 91  4 30  0 48  0.0000000  0  4G13G 2G 6G12
  20235401.1024     -19701.30847    -10954.47662
  22413330.719      135477.950 6     79417.04322
  21520221.516      198387.676 6    116502.56622
  22922822.1414    -459294.86546   -268214.71161
 91  4 30  0 48 15.0000000  0  4G13G 2G 6G12
  20235036.1414     -21623.78547    -12452.50762
  22416598.930      152649.629 6     92797.56122
  21525042.7894     223729.72446    136249.58562
  22911937.1644    -516502.33846   -312791.94261
 91  4 30  0 48 30.0000000  0  4G13G 2G 6G12
  20234693.0784     -23420.83447    -13852.80662
  22419879.0164     169880.50746    106224.19061
  21529891.273      249198.428 6    156095.30422
  22901059.3984    -573656.81346   -357327.86361
 91  4 30  0 48 45.0000000  0  4G13G 2G 6G12
  20234374.8284     -25097.65847    -15159.41862
  22423166.953      187165.567 6    119693.04022
  21534762.4694     274788.48746    176035.57862
  22890194.6414    -630763.21246   -401826.32161
 91  4 30  0 49  0.0000000  0  4G13G 2G 6G12
  20234078.9774     -26651.10847    -16369.89762
  22426466.188      204507.967 6    133206.57622
  21539654.375      300502.960 6    196072.80522
  22879336.5634    -687817.88646   -446284.47561
 91  4 30  0 49 14.9990000  0  4G13G 2G 6G12
  20233806.6594     -28083.50547    -17486.04562
  22429779.065      221904.421 6    146762.23521
  21544569.8624     326337.98346    216203.96962
  22868490.019     -744818.776 6   -490700.72321
 91  4 30  0 49 29.9990000  0  4G13G 2G 6G12
  20233557.1444     -29396.89947    -18509.46562
  22433100.5894     239355.67046    160360.57661
  21549509.0584     352295.11646    236430.27562
  22857651.300     -801774.707 6   -535081.94421
 91  4 30  0 49 44.9990000  0  4G13G 2G 6G12
  20233328.9334     -30590.69747    -19439.70062
  22436429.5194     256861.44346    174001.41561
  21554472.026      378373.370 6    256750.97622
  22846822.6124    -858680.83446   -579424.34061
 91  4 30  0 49 59.9990000  0  4G13G 2G 6G12
  20233124.6444     -31661.15347    -20273.82062
  22439775.058      274425.675 6    187687.80721
  21559457.433      404576.380 6    277168.88322
  22836001.3004    -915532.96846   -623724.67161
 91  4 30  0 50 14.9990000  0  4G13G 2G 6G12
  20232945.3154     -32606.70647    -21010.61662
  22443127.8624     292050.54646    201421.44261
  21564466.7224     430905.98146    297685.42262
  22825195.800     -972328.778 6   -667981.11521
 91  4 30  0 50 29.9990000  0  4G13G 2G 6G12
  20232788.1054     -33436.52947    -21657.23262
  22446487.370      309727.008 6    215195.28321
  21569500.940      457353.123 6    318293.56322
  22814397.4954   -1029076.82746   -712200.35761
 91  4 30  0 50 44.9990000  0  4G13G 2G 6G12
  20232651.4564     -34142.79947    -22207.57762
  22449865.2304     327462.68646    229015.26361
  21574558.9954     483925.46046    338999.25462
  22803607.6674   -1085769.01146   -756376.07261
 91  4 30  0 50 59.9990000  0  4G13G 2G 6G12
  20232540.6054     -34730.83747    -22665.79062
  22453252.151      345252.801 6    242877.66221
  21579636.940      510617.692 6    359798.37322
  22792830.167    -1142409.863 6   -800511.75721
 91  4 30  0 51 14.9990000  0  4G13G 2G 6G12
  20232455.6834     -35195.66347    -23027.99262
  22456649.495      363102.646 6    256786.60821
  21584741.6364     537435.06546    380695.00062
  22782062.8474   -1198993.82246   -844603.12461
 91  4 30  0 51 29.9990000  0  4G13G 2G 6G12
  20232388.6984     -35539.91347    -23296.24162
  22460054.2614     381009.72746    270740.14261
  21589866.878      564374.826 6    401686.99122
  22771306.1674   -1255523.12646   -888651.89461
 91  4 30  0 51 44.9990000  0  4G13G 2G 6G12
  20232347.5974     -35761.57647    -23468.96362
  22463473.823      398976.448 6    284740.16221
  21595017.276      591439.063 6    422775.98622
  22760560.6754   -1311995.06246   -932655.95661
